TimeCDT,TemperatureF,Dew PointF,Humidity,Sea Level PressureIn,VisibilityMPH,Wind Direction,Wind SpeedMPH,Gust SpeedMPH,PrecipitationIn,Events,Conditions,WindDirDegrees,DateUTC
12:21 AM,75.0,73.0,94,30.05,10.0,Calm,Calm,-,N/A,,Mostly Cloudy,0,2013-07-31 05:21:00
12:52 AM,75.0,72.0,90,30.02,9.0,Calm,Calm,-,N/A,,Mostly Cloudy,0,2013-07-31 05:52:00
1:52 AM,73.9,72.0,93,30.01,8.0,Calm,Calm,-,N/A,,Mostly Cloudy,0,2013-07-31 06:52:00
2:52 AM,73.0,72.0,96,30.01,3.0,Calm,Calm,-,N/A,,Overcast,0,2013-07-31 07:52:00
3:52 AM,73.9,72.0,93,30.01,5.0,West,4.6,-,N/A,,Overcast,280,2013-07-31 08:52:00
4:24 AM,72.0,71.1,97,30.03,1.8,Calm,Calm,-,N/A,,Scattered Clouds,0,2013-07-31 09:24:00
4:34 AM,73.0,71.1,93,30.03,1.2,NNW,3.5,-,N/A,,Scattered Clouds,340,2013-07-31 09:34:00
4:37 AM,72.0,71.1,97,30.03,0.8,NNW,3.5,-,N/A,,Mist,330,2013-07-31 09:37:00
4:52 AM,72.0,71.1,97,30.00,0.2,NNW,4.6,-,N/A,Fog,Fog,330,2013-07-31 09:52:00
5:25 AM,72.0,72.0,100,30.05,0.8,NNW,3.5,-,N/A,,Mist,340,2013-07-31 10:25:00
5:30 AM,73.0,72.0,96,30.05,2.0,NNW,4.6,-,N/A,,Overcast,340,2013-07-31 10:30:00
5:49 AM,73.4,71.6,94,30.06,1.2,North,5.8,-,N/A,,Overcast,360,2013-07-31 10:49:00
5:52 AM,73.0,72.0,96,30.02,1.0,North,5.8,-,N/A,,Mist,350,2013-07-31 10:52:00
6:12 AM,73.0,72.0,96,30.06,0.8,Calm,Calm,-,N/A,,Mist,0,2013-07-31 11:12:00
6:32 AM,73.0,72.0,96,30.07,0.1,North,4.6,-,N/A,Fog,Fog,360,2013-07-31 11:32:00
6:52 AM,73.0,72.0,96,30.04,0.1,North,5.8,-,N/A,Fog,Fog,350,2013-07-31 11:52:00
7:27 AM,73.0,72.0,96,30.08,0.5,Calm,Calm,-,N/A,Fog,Fog,0,2013-07-31 12:27:00
7:43 AM,73.0,72.0,96,30.08,1.5,Calm,Calm,-,N/A,,Overcast,0,2013-07-31 12:43:00
7:52 AM,73.0,72.0,96,30.04,2.0,Calm,Calm,-,N/A,,Overcast,0,2013-07-31 12:52:00
8:15 AM,73.0,72.0,96,30.08,3.0,Calm,Calm,-,N/A,,Overcast,0,2013-07-31 13:15:00
8:52 AM,75.0,72.0,90,30.04,7.0,Calm,Calm,-,N/A,,Overcast,0,2013-07-31 13:52:00
9:15 AM,75.9,73.0,91,30.09,9.0,NNW,5.8,-,N/A,,Overcast,330,2013-07-31 14:15:00
9:52 AM,75.9,72.0,87,30.06,10.0,North,9.2,-,N/A,,Overcast,360,2013-07-31 14:52:00
10:14 AM,75.9,72.0,87,30.10,8.0,NNW,8.1,-,N/A,,Overcast,340,2013-07-31 15:14:00
10:27 AM,75.9,73.0,91,30.10,10.0,NNW,6.9,-,0.00,,Overcast,330,2013-07-31 15:27:00
10:38 AM,75.9,72.0,87,30.10,10.0,NNW,8.1,-,0.00,,Overcast,340,2013-07-31 15:38:00
10:44 AM,77.0,73.0,88,30.09,10.0,NW,6.9,-,0.00,,Overcast,320,2013-07-31 15:44:00
10:52 AM,77.0,72.0,84,30.06,10.0,NNW,5.8,-,0.00,,Overcast,340,2013-07-31 15:52:00
11:52 AM,78.1,72.0,81,30.06,10.0,North,8.1,-,N/A,,Mostly Cloudy,10,2013-07-31 16:52:00
12:04 PM,81.0,72.0,74,30.09,10.0,NNE,10.4,-,N/A,,Mostly Cloudy,20,2013-07-31 17:04:00
12:52 PM,81.0,72.0,74,30.05,10.0,North,11.5,-,N/A,,Mostly Cloudy,10,2013-07-31 17:52:00
1:02 PM,82.0,71.1,69,30.09,10.0,North,8.1,-,N/A,,Scattered Clouds,350,2013-07-31 18:02:00
1:11 PM,81.0,72.0,74,30.09,10.0,NNE,11.5,-,N/A,,Mostly Cloudy,20,2013-07-31 18:11:00
1:36 PM,82.0,71.1,69,30.08,10.0,NNE,11.5,-,N/A,,Mostly Cloudy,20,2013-07-31 18:36:00
1:52 PM,84.0,72.0,67,30.04,10.0,North,12.7,-,N/A,,Partly Cloudy,350,2013-07-31 18:52:00
2:52 PM,84.0,71.1,65,30.04,10.0,NNW,15.0,-,N/A,,Scattered Clouds,340,2013-07-31 19:52:00
3:52 PM,84.0,68.0,58,30.03,10.0,North,12.7,-,N/A,,Clear,350,2013-07-31 20:52:00
4:52 PM,84.0,69.1,61,30.01,10.0,North,10.4,-,N/A,,Clear,350,2013-07-31 21:52:00
5:52 PM,84.0,66.9,56,29.99,10.0,North,10.4,-,N/A,,Clear,360,2013-07-31 22:52:00
6:52 PM,82.0,68.0,62,29.99,10.0,NNW,10.4,-,N/A,,Clear,330,2013-07-31 23:52:00
7:52 PM,79.0,69.1,72,30.01,10.0,NNW,5.8,-,N/A,,Clear,340,2013-08-01 00:52:00
8:52 PM,75.0,68.0,79,30.02,10.0,North,4.6,-,N/A,,Clear,360,2013-08-01 01:52:00
9:52 PM,73.9,66.9,79,30.04,10.0,North,4.6,-,N/A,,Clear,10,2013-08-01 02:52:00
10:52 PM,72.0,66.9,84,30.05,10.0,NNE,8.1,-,N/A,,Clear,20,2013-08-01 03:52:00
11:52 PM,71.1,66.0,84,30.06,10.0,NE,6.9,-,N/A,,Clear,40,2013-08-01 04:52:00